EHI
4 4 3 1 0 1 1 1 1 2 4 4 4 2 1 0 0 1 1 1 2 4 5 5 4 2 1 2 2 1 0 0 0 0 0 0 0 0 0 0 0 0 0
4 3 2 1 0 0 0 0 1 3 4 5 5 2 1 0 0 0 1 2 3 5 6 6 5 2 1 2 2 1 0 0 0 0 0 0 0 0 0 0 0 0 0
3 3 2 1 0 0 0 1 2 3 4 6 5 3 2 2 1 0 0 1 2 4 4 5 5 3 1 1 1 1 1 1 1 0 0 0 0 0 0 0 0 0 0
1 1 2 1 0 0 0 1 2 3 4 4 4 3 2 3 3 1 0 1 1 2 2 3 4 3 2 1 1 1 2 2 2 0 0 0 0 0 0 0 0 0 0
0 0 1 1 0 0 0 1 1 2 2 2 2 1 1 2 2 1 1 1 1 1 1 2 2 2 2 3 3 1 1 1 1 0 0 1 1 0 0 0 0 0 0
0 0 0 0 0 0 0 0 0 1 1 1 1 0 0 1 1 0 0 0 0 0 0 0 1 1 2 2 2 0 0 0 0 0 1 2 2 1 0 0 0 0 0
0 0 0 0 0 0 0 0 0 0 0 0 0 0 0 0 0 0 0 0 0 0 0 0 1 2 2 2 1 0 1 2 1 0 1 3 4 2 1 0 0 0 0
0 0 0 0 0 0 0 0 0 0 0 0 0 0 0 0 0 0 0 0 0 0 1 1 1 2 3 2 1 0 1 2 1 1 2 4 5 3 1 0 0 0 0
0 0 0 0 0 0 0 0 0 0 0 0 0 0 0 0 0 0 0 0 0 0 1 1 1 1 2 1 0 0 1 1 1 1 2 4 6 5 2 0 0 0 0
0 0 0 0 0 0 0 0 0 0 0 0 0 0 0 0 0 0 0 0 0 0 1 1 0 0 0 0 0 0 0 0 0 1 2 4 5 5 3 1 0 0 0
0 0 0 0 0 0 0 0 0 0 0 0 0 0 0 0 0 0 0 0 0 0 0 0 0 0 0 0 0 0 0 0 0 0 1 2 4 4 3 2 1 0 0
0 0 0 0 0 0 0 0 0 0 0 0 0 0 0 0 0 0 0 0 0 0 0 1 2 1 0 0 0 0 1 0 0 0 0 1 2 3 3 2 1 0 0
0 0 0 0 0 0 0 0 0 0 0 0 0 0 0 0 0 0 0 0 0 0 0 1 2 2 1 0 0 0 0 0 0 0 0 0 1 2 2 1 0 0 0
0 0 0 0 0 0 0 0 0 0 0 0 0 0 0 0 0 0 0 0 0 0 0 1 1 1 1 0 0 0 0 0 0 0 0 0 0 1 1 0 0 0 0
0 0 0 0 0 0 0 0 0 0 0 0 0 0 0 0 0 0 0 0 0 0 0 0 0 0 1 1 0 0 0 0 0 0 0 0 0 0 0 0 0 0 0
0 0 0 0 0 0 0 0 0 0 0 0 0 0 0 0 0 0 0 0 0 0 0 0 0 0 0 0 0 0 0 0 0 0 0 0 0 0 0 0 0 0 0
0 0 0 0 0 0 0 0 0 0 0 0 0 0 0 0 0 0 0 0 0 0 0 0 0 0 0 0 0 0 0 0 0 0 0 0 0 0 0 0 0 0 0
0 0 0 0 0 0 0 0 0 0 0 0 0 0 0 0 0 0 0 0 0 0 0 0 0 0 0 0 0 0 0 0 0 0 0 0 0 0 0 0 0 0 0
0 0 0 0 0 0 0 0 0 0 0 0 0 0 0 0 0 0 0 0 0 0 0 0 0 0 0 0 0 0 0 0 0 0 0 0 0 0 0 0 0 0 0
0 0 0 0 0 0 0 0 0 0 0 0 0 0 0 0 0 0 0 0 0 0 0 0 0 0 0 0 0 0 0 0 0 0 0 0 0 0 0 0 0 0 0
0 0 0 0 0 0 0 0 0 0 0 0 0 0 0 0 0 0 0 0 0 0 0 0 0 0 0 0 0 0 0 0 0 0 0 0 0 0 0 0 0 0 0
0 0 0 0 0 0 0 0 0 0 0 0 0 0 0 0 0 0 0 0 0 0 0 0 0 0 0 0 0 0 0 0 0 0 0 0 0 0 0 0 0 0 0
0 0 0 0 0 0 0 0 0 0 0 0 0 0 0 0 0 0 0 0 0 0 0 0 0 0 0 0 0 0 0 0 0 0 0 0 0 0 0 0 0 0 0
0 0 0 0 0 0 0 0 0 0 0 0 0 0 0 0 0 0 0 0 0 0 0 0 0 0 0 0 0 0 0 0 0 0 0 0 0 0 0 0 0 0 0
0 0 0 0 0 0 0 0 0 0 0 0 0 0 0 0 0 0 0 0 0 0 0 0 0 0 0 0 0 0 0 0 0 0 0 0 0 0 0 0 0 0 0
0 0 0 0 0 0 0 0 0 0 0 0 0 0 0 0 0 0 0 0 0 0 0 0 0 0 0 0 0 0 0 0 0 0 0 0 0 0 0 0 0 0 0
Wind_Speed
3 3 2 2 3 3 4 4 4 5 6 7 7 9 9 9 8 7 6 14 15 16 18 19 20 20 20 19 19 18 18 18 17 15 14 14 14 14 14 13 12 11 11
3 2 2 2 3 3 3 4 5 5 5 5 7 9 9 9 8 9 8 10 15 15 16 18 20 20 20 20 20 19 19 18 17 16 15 14 14 14 14 14 13 12 11
3 2 2 3 3 3 3 3 4 4 4 5 7 9 8 9 8 9 9 7 8 13 16 16 18 19 20 21 21 20 19 18 17 17 16 15 15 14 14 14 14 13 12
1 2 2 3 3 2 2 3 3 3 4 4 5 6 7 6 9 10 9 8 7 7 11 16 17 18 20 21 21 21 20 19 18 18 18 17 16 15 15 15 14 14 13
1 1 1 2 2 2 2 3 2 2 3 4 5 6 5 6 8 9 10 10 9 8 7 11 16 17 20 21 21 22 21 20 19 20 20 19 18 17 16 16 15 15 14
1 0 1 2 1 1 2 2 2 2 2 3 5 5 5 6 7 8 9 8 8 10 9 9 8 11 18 20 20 21 21 21 20 20 20 20 19 18 17 16 16 16 15
0 0 1 1 1 1 2 2 2 2 2 2 2 3 4 5 7 7 7 7 8 9 9 9 7 7 8 17 19 20 21 21 20 20 20 20 20 19 18 18 17 16 16
1 1 1 1 1 1 2 2 1 1 1 1 2 1 2 2 4 6 5 6 7 7 9 10 9 9 7 6 11 19 20 20 21 21 20 20 20 19 19 19 18 18 17
2 2 2 2 2 2 2 2 2 2 2 2 2 2 2 3 2 2 4 5 5 6 7 7 9 10 10 8 8 14 19 19 19 20 20 20 20 19 19 20 19 19 18
3 3 2 2 2 2 3 3 2 2 3 2 2 2 3 2 2 2 2 2 5 6 7 7 8 9 10 8 9 12 16 17 17 19 20 20 20 20 19 20 20 20 19
3 3 3 2 3 3 3 3 2 3 3 3 2 2 2 2 2 2 3 2 2 3 5 6 6 6 8 9 8 12 15 16 16 18 19 19 19 20 20 21 21 21 21
3 4 3 3 3 3 4 4 3 4 3 3 3 2 2 2 2 2 3 3 3 2 3 4 5 5 6 7 10 13 15 15 16 17 18 18 18 19 20 20 21 21 21
3 4 3 3 4 4 4 4 4 4 4 4 4 3 3 3 2 2 2 2 3 2 2 2 4 5 6 6 7 12 14 15 15 15 16 16 16 17 18 19 19 20 20
4 5 5 4 5 5 5 4 4 5 4 5 5 4 3 4 3 3 3 2 2 2 2 2 1 3 4 5 7 10 9 13 14 14 15 14 14 15 15 16 16 16 16
5 5 5 5 5 5 5 4 4 5 4 5 5 5 4 4 3 3 3 3 3 2 2 2 1 1 2 3 5 7 7 11 13 13 14 13 13 13 13 14 14 14 13
5 5 6 6 6 6 5 5 5 5 5 5 4 5 5 4 3 3 3 3 3 3 3 1 1 1 2 2 4 5 6 9 12 13 13 12 12 12 12 12 12 12 12
5 6 6 6 7 7 6 5 6 6 6 6 6 6 7 5 4 4 4 3 3 3 3 2 1 1 2 2 2 3 3 4 6 11 12 12 11 12 12 12 11 11 11
6 6 6 6 7 7 6 6 7 7 7 8 7 7 8 6 6 5 4 5 4 4 3 3 2 1 2 2 2 3 3 3 3 7 11 11 11 11 11 11 10 10 9
7 7 6 7 7 7 7 7 7 8 8 8 8 8 8 7 7 6 6 6 5 4 4 3 3 1 1 1 2 2 3 2 2 5 8 9 10 10 10 10 9 9 9
7 7 7 7 8 8 8 8 7 8 8 8 8 8 8 8 9 8 7 7 6 5 4 3 3 2 2 2 2 3 3 2 2 3 4 5 8 9 9 9 9 9 9
8 7 7 8 8 7 7 8 7 8 8 8 8 8 9 10 11 9 7 7 7 6 5 4 4 3 3 3 3 3 4 3 2 2 4 4 5 5 5 7 8 9 9
8 7 8 8 8 8 9 12 10 8 8 9 9 9 9 11 12 13 14 13 12 9 8 6 5 5 5 4 3 4 4 4 3 3 4 4 4 4 4 4 6 8 9
7 8 8 8 9 10 13 14 14 9 8 9 9 8 8 8 10 9 11 13 14 14 13 9 8 7 6 6 5 6 6 6 4 6 5 4 4 4 3 3 7 8 9
7 7 8 8 9 10 13 12 13 9 8 9 9 10 10 9 9 9 9 9 9 10 11 9 8 8 7 6 7 6 6 4 3 4 4 4 4 3 3 3 5 8 9
8 7 8 8 9 10 12 12 10 6 7 9 9 9 10 10 11 11 9 9 8 7 9 10 10 9 9 9 7 5 6 6 5 4 3 4 5 4 3 3 3 7 8
8 8 8 8 8 9 11 11 8 4 6 7 7 8 11 12 12 12 10 9 9 8 6 7 7 7 8 9 10 8 7 7 5 4 5 5 5 5 4 2 3 4 5
Wind_Direction
233 235 245 241 248 247 239 237 235 231 229 230 229 230 232 231 227 220 221 228 225 223 221 219 213 210 206 202 200 199 198 196 193 190 189 188 185 183 181 181 180 178 177
234 234 247 247 247 249 251 247 238 232 231 230 238 238 237 232 231 227 222 228 229 224 222 221 217 214 211 207 204 202 201 200 197 194 193 192 190 187 186 187 185 183 182
217 214 226 232 245 247 245 241 244 236 232 230 237 240 241 236 232 231 227 222 225 226 223 221 219 215 213 212 209 205 203 202 199 197 196 196 194 191 189 189 188 187 186
218 214 227 241 246 250 250 246 236 236 235 235 239 243 242 238 235 233 227 222 217 219 222 221 219 217 214 214 214 211 207 204 202 200 199 199 198 195 193 193 192 189 189
246 222 244 266 266 269 263 260 240 220 234 243 247 246 242 241 240 236 229 223 218 215 215 221 220 218 217 216 216 214 210 206 205 204 203 202 202 199 197 196 195 193 192
296 247 264 279 274 262 262 249 250 241 234 244 255 254 243 238 236 233 230 226 221 218 215 218 218 221 220 217 216 216 213 209 206 207 206 205 205 202 200 199 197 196 196
305 229 265 279 268 250 260 253 232 247 241 229 245 265 262 247 241 235 228 225 225 222 215 213 212 214 218 216 215 215 215 213 209 208 208 206 206 203 201 201 200 199 199
286 263 247 260 263 261 278 263 208 223 249 217 214 256 286 290 257 235 223 223 227 221 219 216 210 210 213 209 211 214 215 214 212 210 210 208 206 204 203 204 203 202 201
295 285 266 257 260 246 263 268 225 204 231 247 213 203 227 251 290 274 230 223 221 221 223 217 215 213 211 209 209 215 214 213 213 213 213 211 207 204 205 205 206 204 203
295 289 281 269 259 250 255 261 240 218 213 236 235 224 230 228 246 291 289 235 224 224 224 222 219 212 210 208 209 207 209 209 210 213 214 212 209 205 204 206 209 208 206
298 293 282 268 261 254 253 252 241 229 219 221 216 224 234 240 234 240 273 284 258 233 227 224 216 211 210 209 209 212 207 208 210 213 213 212 209 206 206 208 211 212 210
294 292 286 270 263 255 250 248 238 231 228 229 224 216 215 215 218 221 249 268 264 251 233 224 219 215 211 207 213 210 207 207 208 210 211 211 209 208 207 209 212 213 213
284 285 286 273 267 258 254 248 242 238 227 223 223 222 224 227 216 209 236 260 257 269 257 229 220 213 212 205 211 210 208 204 204 207 209 208 206 205 205 207 211 213 215
266 274 276 271 268 267 264 251 244 243 233 228 230 223 222 228 221 214 208 228 256 255 244 242 227 213 213 205 210 206 210 203 202 203 205 204 203 202 203 203 206 210 211
274 278 278 277 274 270 265 255 246 246 239 232 232 227 227 229 219 222 215 211 219 239 245 240 234 224 217 207 207 207 208 203 200 198 199 199 198 196 195 195 198 201 204
277 285 283 280 277 273 267 256 252 249 243 240 233 229 228 230 224 221 219 218 216 219 240 247 246 283 259 241 214 208 208 198 197 195 195 196 194 192 190 191 195 198 201
286 283 280 279 278 276 270 259 255 252 245 245 240 231 232 225 221 220 215 213 217 215 227 249 255 263 249 242 229 200 189 192 193 191 190 188 187 187 186 186 188 192 196
284 281 279 278 276 274 267 260 261 258 246 244 241 234 236 228 221 217 212 213 214 214 215 233 242 245 235 225 204 184 172 181 181 181 179 177 177 177 177 178 181 186 191
287 286 281 278 278 276 270 262 258 257 249 246 243 237 237 228 226 219 213 214 214 215 210 220 233 237 235 200 162 151 141 135 156 161 166 167 168 167 168 172 175 180 184
286 284 281 277 276 275 272 266 260 257 253 249 244 239 237 229 226 222 216 213 209 212 208 217 224 235 237 201 169 163 154 145 149 149 143 146 152 154 161 167 172 173 175
288 283 282 282 278 275 267 261 255 257 252 252 249 243 240 237 233 224 220 211 204 205 203 213 218 218 220 200 192 175 170 148 142 148 141 141 140 144 154 162 167 168 167
291 288 284 283 281 277 274 272 268 261 254 250 250 247 246 247 245 236 227 216 204 203 203 204 209 215 218 214 190 178 167 164 174 168 157 152 146 150 153 160 162 163 164
291 291 287 284 282 279 275 273 270 263 254 250 247 246 249 244 235 235 233 227 217 213 205 201 207 212 211 204 197 188 187 182 180 165 156 154 152 155 143 142 156 163 165
292 289 287 286 283 282 282 279 275 267 256 250 246 242 242 246 238 228 230 228 223 219 213 209 210 212 210 202 203 202 186 165 136 155 158 155 155 151 136 136 152 161 162
295 291 287 286 285 287 286 284 275 263 256 254 248 243 239 241 237 226 225 224 222 224 221 213 208 210 208 202 193 182 171 167 171 175 172 155 147 136 134 141 138 147 151
289 291 289 285 282 285 288 288 280 258 257 258 254 247 239 236 233 221 219 216 217 217 207 203 205 210 210 206 194 196 186 179 166 174 172 157 150 145 143 140 144 145 139